This is the latest recevied weather packets stored in our database for station/object dl1wer-13. If no packets are shown the sender has not sent any weather packets the latest 10 day(s).
| Time | Temp. | Humidity | Pressure | Rain* | Wind** | Luminosity | Snow |
|---|---|---|---|---|---|---|---|
| 1777906821 | 22.22° C | 37% | 1037.9 hPa | 0 mm | - | - | - |
| 1777906220 | 22.78° C | 36% | 1037.8 hPa | 0 mm | - | - | - |
| 1777905620 | 22.78° C | 36% | 1037.9 hPa | 0 mm | - | - | - |
| 1777905021 | 22.78° C | 37% | 1037.8 hPa | 0 mm | - | - | - |
| 1777904420 | 22.22° C | 36% | 1037.9 hPa | 0 mm | - | - | - |
| 1777903820 | 22.78° C | 37% | 1038.2 hPa | 0 mm | - | - | - |
| 1777903221 | 22.78° C | 36% | 1038 hPa | 0 mm | - | - | - |
| 1777902620 | 22.78° C | 37% | 1038.2 hPa | 0 mm | - | - | - |
| 1777902020 | 23.33° C | 36% | 1038.5 hPa | 0 mm | - | - | - |
| 1777901420 | 22.78° C | 38% | 1038.6 hPa | 0 mm | - | - | - |
| 1777900820 | 22.78° C | 39% | 1038.5 hPa | 0 mm | - | - | - |
| 1777900220 | 22.22° C | 42% | 1038.4 hPa | 0 mm | - | - | - |
| 1777899621 | 22.22° C | 41% | 1038.8 hPa | 0 mm | - | - | - |
| 1777899019 | 22.22° C | 41% | 1038.7 hPa | 0 mm | - | - | - |
| 1777898420 | 22.22° C | 42% | 1038.7 hPa | 0 mm | - | - | - |
| 1777897821 | 22.22° C | 41% | 1038.9 hPa | 0 mm | - | - | - |
| 1777897220 | 22.22° C | 41% | 1038.8 hPa | 0 mm | - | - | - |
| 1777896620 | 22.22° C | 39% | 1039 hPa | 0 mm | - | - | - |
| 1777896020 | 22.22° C | 39% | 1039 hPa | 0 mm | - | - | - |
| 1777895420 | 22.22° C | 39% | 1039 hPa | 0 mm | - | - | - |
| 1777894820 | 22.22° C | 40% | 1038.9 hPa | 0 mm | - | - | - |
| 1777894220 | 22.22° C | 40% | 1039.2 hPa | 0 mm | - | - | - |
| 1777893620 | 22.22° C | 40% | 1039.1 hPa | 0 mm | - | - | - |
| 1777893019 | 22.22° C | 40% | 1039.4 hPa | 0 mm | - | - | - |
| 1777892420 | 22.22° C | 41% | 1039.3 hPa | 0 mm | - | - | - |
* Rain latest hour (hover to see other rain measurements)
** Current wind speed in m/s (hover to see current wind gust speed)